KD4TJG Weather Reports


Display with metric or nautical units.
time (UTC)temp
F
wind
direction
speed
MPH
gust
MPH
rain 1hr
in
rain 24hr
in
rain mn
in
humidity
%
barometer
mb
20260831200527 79 160 1.0 3.0 0.00 0.00 0.00 81 1019.1
20260831200158 79 161 1.0 2.0 0.00 0.00 0.00 80 1021.1
20260831200135 78 161 1.0 3.0 0.00 0.00 0.00 80 1019.1
20260831195528 78 194 2.0 3.0 0.00 0.00 0.00 81 1019.3
20260831195151 78 249 1.0 1.0 0.00 0.00 0.00 81 1021.4
20260831195025 77 278 0.0 6.0 0.00 0.00 0.00 81 1019.4
20260831194556 77 164 2.0 6.0 0.00 0.00 0.00 81 1019.4
20260831194137 78 210 1.0 5.0 0.00 0.00 0.00 80 1021.6
20260831194023 77 182 2.0 6.0 0.00 0.00 0.00 80 1019.7
20260831193525 78 154 2.0 11.0 0.00 0.00 0.00 78 1019.7
20260831193144 79 187 4.0 13.0 0.00 0.00 0.00 77 1021.7
20260831193045 79 192 2.0 15.0 0.00 0.00 0.00 76 1019.7
20260831192524 81 226 3.0 15.0 0.00 0.00 0.00 71 1019.6
20260831192208 83 300 3.0 13.0 0.00 0.00 0.00 70 1021.6
20260831192024 83 253 3.0 11.0 0.00 0.00 0.00 69 1019.5
20260831191554 85 328 3.0 11.0 0.00 0.00 0.00 66 1019.5
20260831191026 86 334 1.0 5.0 0.00 0.00 0.00 63 1019.5
20260831190528 87 347 1.0 7.0 0.00 0.00 0.00 61 1019.5
20260831190101 88 350 1.0 4.0 0.00 0.00 0.00 60 1021.4
20260831190051 88 331 1.0 7.0 0.00 0.00 0.00 59 1019.4
20260831185529 89 348 0.0 3.0 0.00 0.00 0.00 56 1019.4
20260831185050 90 33 0.0 2.0 0.00 0.00 0.00 54 1021.4
20260831185025 90 312 0.0 3.0 0.00 0.00 0.00 53 1019.4
20260831184547 91 47 1.0 3.0 0.00 0.00 0.00 50 1019.4
20260831184047 93 327 1.0 3.0 0.00 0.00 0.00 50 1021.4
20260831184021 92 346 1.0 4.0 0.00 0.00 0.00 50 1019.4
20260831183528 92 124 1.0 7.0 0.00 0.00 0.00 52 1019.4
20260831183041 93 142 1.0 7.0 0.00 0.00 0.00 52 1019.5
20260831183014 93 135 2.0 7.0 0.00 0.00 0.00 52 1021.5
20260831182525 93 133 4.0 8.0 0.00 0.00 0.00 51 1019.5
20260831182026 92 132 2.0 8.0 0.00 0.00 0.00 51 1019.6
20260831182017 92 132 3.0 7.0 0.00 0.00 0.00 51 1021.6
20260831181554 93 136 4.0 7.0 0.00 0.00 0.00 52 1019.6
20260831181026 92 195 3.0 6.0 0.00 0.00 0.00 53 1019.7
20260831180525 90 181 1.0 4.0 0.00 0.00 0.00 56 1019.8
20260831180049 89 197 2.0 3.0 0.00 0.00 0.00 57 1019.9
20260831175953 89 188 0.0 2.0 0.00 0.00 0.00 57 1021.9
20260831175524 88 243 0.0 2.0 0.00 0.00 0.00 61 1020.0
20260831175024 88 0 0.0 2.0 0.00 0.00 0.00 58 1020.0
20260831174938 89 312 0.0 0.0 0.00 0.00 0.00 58 1022.1
20260831174549 89 0 0.0 4.0 0.00 0.00 0.00 56 1020.0
20260831174026 90 253 1.0 6.0 0.00 0.00 0.00 58 1020.1
20260831173931 91 253 1.0 5.0 0.00 0.00 0.00 55 1022.1
20260831173524 91 205 3.0 6.0 0.00 0.00 0.00 54 1020.1
20260831173101 91 267 2.0 6.0 0.00 0.00 0.00 55 1020.1
20260831172942 92 137 3.0 7.0 0.00 0.00 0.00 55 1022.1
20260831172525 91 136 2.0 8.0 0.00 0.00 0.00 55 1020.1
20260831172025 91 149 4.0 8.0 0.00 0.00 0.00 55 1020.1
20260831171929 92 170 3.0 7.0 0.00 0.00 0.00 55 1022.1
20260831171553 91 206 4.0 8.0 0.00 0.00 0.00 59 1020.2
20260831171028 89 206 2.0 6.0 0.00 0.00 0.00 58 1020.1
20260831170943 90 253 1.0 4.0 0.00 0.00 0.00 58 1022.2
20260831170525 89 0 1.0 4.0 0.00 0.00 0.00 59 1020.1
20260831170047 88 0 0.0 6.0 0.00 0.00 0.00 63 1020.1
20260831165527 89 212 1.0 7.0 0.00 0.00 0.00 63 1020.2
20260831165025 89 205 2.0 7.0 0.00 0.00 0.00 62 1020.2
20260831164807 89 119 2.0 6.0 0.00 0.00 0.00 60 1022.3
20260831164542 88 195 4.0 7.0 0.00 0.00 0.00 65 1020.3
20260831164027 88 189 2.0 7.0 0.00 0.00 0.00 62 1020.4
20260831163816 88 298 2.0 6.0 0.00 0.00 0.00 62 1022.4
20260831163524 88 272 1.0 7.0 0.00 0.00 0.00 61 1020.4
20260831163054 90 255 3.0 7.0 0.00 0.00 0.00 61 1020.5
20260831162812 90 248 0.0 3.0 0.00 0.00 0.00 63 1022.5
20260831162525 89 12 0.0 4.0 0.00 0.00 0.00 63 1020.5
20260831162025 89 332 1.0 4.0 0.00 0.00 0.00 62 1020.5
20260831161820 89 310 1.0 4.0 0.00 0.00 0.00 65 1022.5
20260831161547 88 243 1.0 5.0 0.00 0.00 0.00 64 1020.5
20260831161028 89 203 2.0 5.0 0.00 0.00 0.00 61 1020.6
20260831160840 89 224 2.0 5.0 0.00 0.00 0.00 64 1022.7
20260831160526 89 168 2.0 6.0 0.00 0.00 0.00 66 1020.6
20260831160043 88 120 3.0 6.0 0.00 0.00 0.00 68 1020.6
20260831155827 88 175 1.0 5.0 0.00 0.00 0.00 68 1022.6
20260831155524 87 248 1.0 6.0 0.00 0.00 0.00 65 1020.6
20260831155025 87 187 2.0 6.0 0.00 0.00 0.00 67 1020.7
20260831154804 87 165 2.0 3.0 0.00 0.00 0.00 66 1022.7
20260831154611 87 189 2.0 7.0 0.00 0.00 0.00 66 1020.7
20260831154027 87 151 2.0 7.0 0.00 0.00 0.00 66 1020.8
20260831153752 87 187 2.0 6.0 0.00 0.00 0.00 69 1022.9
20260831153526 86 154 2.0 7.0 0.00 0.00 0.00 69 1020.8
20260831153053 86 187 3.0 7.0 0.00 0.00 0.00 69 1020.8
20260831152731 86 142 1.0 6.0 0.00 0.00 0.00 68 1022.8
20260831152524 86 133 2.0 6.0 0.00 0.00 0.00 69 1020.8
20260831152023 85 212 2.0 7.0 0.00 0.00 0.00 69 1020.8
20260831151737 86 229 1.0 6.0 0.00 0.00 0.00 70 1022.8
20260831151544 85 170 2.0 7.0 0.00 0.00 0.00 69 1020.8
20260831151024 85 193 1.0 6.0 0.00 0.00 0.00 71 1020.8
20260831150739 85 189 3.0 6.0 0.00 0.00 0.00 72 1022.9
20260831150524 85 199 2.0 8.0 0.00 0.00 0.00 71 1020.9
20260831150053 84 120 4.0 8.0 0.00 0.00 0.00 71 1020.8
20260831145744 85 139 3.0 6.0 0.00 0.00 0.00 71 1022.8
20260831145525 84 154 5.0 8.0 0.00 0.00 0.00 71 1020.9
20260831145025 84 112 2.0 7.0 0.00 0.00 0.00 72 1020.9
20260831144716 84 191 2.0 7.0 0.00 0.00 0.00 74 1023.0
20260831144547 83 245 3.0 9.0 0.00 0.00 0.00 73 1020.9
20260831144025 83 256 2.0 9.0 0.00 0.00 0.00 72 1021.0
20260831143724 84 252 3.0 8.0 0.00 0.00 0.00 73 1023.1
20260831143524 83 302 3.0 8.0 0.00 0.00 0.00 74 1021.0
20260831143043 82 207 4.0 9.0 0.00 0.00 0.00 74 1021.1
20260831142658 83 230 3.0 8.0 0.00 0.00 0.00 74 1023.0
20260831142525 82 270 2.0 10.0 0.00 0.00 0.00 75 1021.0
20260831142024 82 205 4.0 10.0 0.00 0.00 0.00 75 1020.9
20260831141626 82 207 3.0 7.0 0.00 0.00 0.00 75 1022.9
20260831141603 81 211 2.0 8.0 0.00 0.00 0.00 75 1020.9
20260831141024 81 245 2.0 8.0 0.00 0.00 0.00 76 1020.8
20260831140648 81 249 2.0 9.0 0.00 0.00 0.00 76 1022.9
20260831140523 81 303 3.0 10.0 0.00 0.00 0.00 76 1020.9
20260831140051 80 270 1.0 10.0 0.00 0.00 0.00 77 1020.9
20260831135647 81 343 2.0 9.0 0.00 0.00 0.00 77 1022.9
20260831135526 80 203 4.0 10.0 0.00 0.00 0.00 77 1020.8
20260831135026 80 216 0.0 6.0 0.00 0.00 0.00 79 1020.8
20260831134619 80 205 2.0 8.0 0.00 0.00 0.00 80 1022.8
20260831134550 80 186 2.0 9.0 0.00 0.00 0.00 80 1020.7
20260831134026 79 229 3.0 9.0 0.00 0.00 0.00 80 1020.8
20260831133600 80 191 1.0 8.0 0.00 0.00 0.00 80 1022.9
20260831133523 79 190 2.0 5.0 0.00 0.00 0.00 80 1020.9
20260831133052 79 247 2.0 5.0 0.00 0.00 0.00 81 1021.0
20260831132610 79 282 1.0 6.0 0.00 0.00 0.00 82 1023.0
20260831132526 78 268 2.0 7.0 0.00 0.00 0.00 82 1021.0
20260831132025 78 0 1.0 7.0 0.00 0.00 0.00 83 1021.0
20260831131609 78 237 3.0 6.0 0.00 0.00 0.00 83 1023.0
20260831131555 77 206 3.0 7.0 0.00 0.00 0.00 83 1020.9
20260831131024 77 239 3.0 6.0 0.00 0.00 0.00 84 1021.0
20260831130613 77 238 2.0 5.0 0.00 0.00 0.00 85 1023.0
20260831130524 77 249 2.0 8.0 0.00 0.00 0.00 85 1020.9
20260831130053 76 186 2.0 8.0 0.00 0.00 0.00 86 1021.0
20260831125629 76 222 3.0 6.0 0.00 0.00 0.00 86 1023.0
20260831125526 76 195 4.0 8.0 0.00 0.00 0.00 86 1021.0
20260831125024 75 202 2.0 8.0 0.00 0.00 0.00 87 1021.0
20260831124616 76 157 2.0 6.0 0.00 0.00 0.00 87 1023.0
20260831124550 75 197 3.0 8.0 0.00 0.00 0.00 87 1020.9
20260831124025 75 162 1.0 8.0 0.00 0.00 0.00 88 1020.9
20260831123610 74 181 1.0 4.0 0.00 0.00 0.00 88 1023.0
20260831123525 74 180 2.0 8.0 0.00 0.00 0.00 88 1021.0
20260831123054 74 162 2.0 7.0 0.00 0.00 0.00 88 1021.0
20260831122558 74 175 0.0 1.0 0.00 0.00 0.00 88 1023.0
20260831122528 73 175 0.0 2.0 0.00 0.00 0.00 88 1021.1
20260831122025 72 0 0.0 3.0 0.00 0.00 0.00 88 1021.0
20260831121547 72 175 1.0 3.0 0.00 0.00 0.00 88 1020.9
20260831121026 71 222 0.0 2.0 0.00 0.00 0.00 88 1020.9
20260831120526 71 222 0.0 2.0 0.00 0.00 0.00 88 1020.8
20260831120436 71 222 0.0 1.0 0.00 0.00 0.00 88 1022.8
20260831120124 70 222 0.0 2.0 0.00 0.00 0.00 88 1020.8
20260831115524 70 0 0.0 1.0 0.00 0.00 0.00 88 1020.9
20260831115452 70 222 0.0 0.0 0.00 0.00 0.00 88 1022.9
20260831115028 69 0 0.0 1.0 0.00 0.00 0.00 88 1020.8
20260831114554 69 235 0.0 1.0 0.00 0.00 0.00 88 1020.9
20260831114516 69 262 0.0 0.0 0.00 0.00 0.00 88 1023.0
20260831114025 68 160 0.0 1.0 0.00 0.00 0.00 88 1020.9
20260831113525 68 0 0.0 0.0 0.00 0.00 0.00 88 1020.9
20260831113455 68 164 0.0 0.0 0.00 0.00 0.00 88 1022.8
20260831113053 67 0 0.0 0.0 0.00 0.00 0.00 88 1020.9
20260831112527 67 0 0.0 0.0 0.00 0.00 0.00 88 1020.8
20260831112433 68 164 0.0 0.0 0.00 0.00 0.00 88 1022.8
20260831112024 67 0 0.0 0.0 0.00 0.00 0.00 88 1020.7
20260831111556 67 0 0.0 0.0 0.00 0.00 0.00 88 1020.6
20260831111025 67 0 0.0 1.0 0.00 0.00 0.00 88 1020.6
20260831110528 67 0 0.0 1.0 0.00 0.00 0.00 88 1020.6
20260831110338 67 164 0.0 0.0 0.00 0.00 0.00 88 1022.7
20260831110053 67 0 0.0 1.0 0.00 0.00 0.00 88 1020.7
20260831105527 68 0 0.0 2.0 0.00 0.00 0.00 88 1020.6
20260831105317 68 164 0.0 0.0 0.00 0.00 0.00 88 1022.5
20260831105026 68 164 0.0 2.0 0.00 0.00 0.00 88 1020.5
20260831104552 68 164 0.0 2.0 0.00 0.00 0.00 88 1020.5
20260831104246 68 164 0.0 0.0 0.00 0.00 0.00 88 1022.6
20260831104024 68 0 0.0 2.0 0.00 0.00 0.00 88 1020.5
20260831103524 68 164 0.0 2.0 0.00 0.00 0.00 88 1020.5
20260831103053 68 0 0.0 3.0 0.00 0.00 0.00 88 1020.4
20260831102524 68 0 1.0 3.0 0.00 0.00 0.00 88 1020.4
20260831102119 68 164 0.0 1.0 0.00 0.00 0.00 88 1022.5
20260831102026 68 164 0.0 2.0 0.00 0.00 0.00 88 1020.4
20260831101548 68 0 0.0 2.0 0.00 0.00 0.00 88 1020.4
20260831101123 68 164 0.0 0.0 0.00 0.00 0.00 88 1022.4
20260831101025 68 164 0.0 1.0 0.00 0.00 0.00 88 1020.4
20260831100523 67 0 0.0 2.0 0.00 0.00 0.00 88 1020.2
20260831100132 67 164 0.0 0.0 0.00 0.00 0.00 88 1022.2
20260831100049 67 0 0.0 2.0 0.00 0.00 0.00 88 1020.2
20260831095523 67 164 0.0 2.0 0.00 0.00 0.00 88 1020.2
20260831095146 67 164 0.0 0.0 0.00 0.00 0.00 88 1022.2
20260831095023 67 0 0.0 0.0 0.00 0.00 0.00 88 1020.2
20260831094553 67 0 0.0 1.0 0.00 0.00 0.00 88 1020.1
20260831094129 67 164 0.0 0.0 0.00 0.00 0.00 88 1022.1
20260831094025 67 0 0.0 1.0 0.00 0.00 0.00 88 1020.0
20260831093525 67 0 0.0 1.0 0.00 0.00 0.00 88 1020.1
20260831093146 67 164 0.0 0.0 0.00 0.00 0.00 88 1022.2
20260831093057 67 0 0.0 0.0 0.00 0.00 0.00 88 1020.2
20260831092529 67 0 0.0 0.0 0.00 0.00 0.00 88 1020.2
20260831092202 68 164 0.0 0.0 0.00 0.00 0.00 88 1022.2
20260831092025 67 0 0.0 0.0 0.00 0.00 0.00 88 1020.1
20260831091544 67 0 0.0 0.0 0.00 0.00 0.00 88 1020.1
20260831091024 67 0 0.0 0.0 0.00 0.00 0.00 88 1020.2
20260831090523 67 0 0.0 0.0 0.00 0.00 0.00 88 1020.2
20260831085526 68 0 0.0 0.0 0.00 0.00 0.00 88 1020.1
20260831085025 68 0 0.0 2.0 0.00 0.00 0.00 88 1020.2
20260831084558 68 0 0.0 2.0 0.00 0.00 0.00 88 1020.2
20260831084026 68 0 0.0 2.0 0.00 0.00 0.00 88 1020.1
20260831083747 68 164 0.0 0.0 0.00 0.00 0.00 88 1022.1
20260831083526 68 0 0.0 0.0 0.00 0.00 0.00 88 1020.1
20260831083049 68 0 0.0 0.0 0.00 0.00 0.00 88 1020.1
20260831082805 68 164 0.0 0.0 0.00 0.00 0.00 88 1022.2
20260831082524 68 0 0.0 0.0 0.00 0.00 0.00 88 1020.1
20260831082026 68 0 0.0 0.0 0.00 0.00 0.00 88 1020.1
20260831081759 68 164 0.0 0.0 0.00 0.00 0.00 88 1022.1
20260831081553 68 0 0.0 0.0 0.00 0.00 0.00 88 1020.1
20260831081026 68 0 0.0 0.0 0.00 0.00 0.00 88 1020.1
20260831080734 68 164 0.0 0.0 0.00 0.00 0.00 88 1022.1
20260831080527 68 0 0.0 0.0 0.00 0.00 0.00 88 1020.1
20260831080053 68 0 0.0 0.0 0.00 0.00 0.00 88 1020.2
20260831075525 69 0 0.0 0.0 0.00 0.00 0.00 88 1020.2
20260831075026 68 0 0.0 0.0 0.00 0.00 0.00 88 1020.2
20260831074625 69 164 0.0 0.0 0.00 0.00 0.00 88 1022.1
20260831074553 69 0 0.0 0.0 0.00 0.00 0.00 88 1020.1
20260831074025 69 0 0.0 0.0 0.00 0.00 0.00 88 1020.1
20260831073610 70 164 0.0 0.0 0.00 0.00 0.00 88 1022.1
20260831073528 69 0 0.0 0.0 0.00 0.00 0.00 88 1020.1
20260831073048 69 0 0.0 0.0 0.00 0.00 0.00 88 1020.1
20260831072526 69 0 0.0 0.0 0.00 0.00 0.00 88 1020.2
20260831072025 69 0 0.0 0.0 0.00 0.00 0.00 88 1020.2
20260831071602 69 0 0.0 0.0 0.00 0.00 0.00 88 1020.1
20260831071429 69 164 0.0 0.0 0.00 0.00 0.00 88 1022.2
20260831071028 69 0 0.0 0.0 0.00 0.00 0.00 88 1020.2
20260831070525 69 0 0.0 0.0 0.00 0.00 0.00 88 1020.2
20260831070359 69 164 0.0 0.0 0.00 0.00 0.00 88 1022.2
20260831070104 69 0 0.0 0.0 0.00 0.00 0.00 88 1020.2
20260831065528 69 0 0.0 0.0 0.00 0.00 0.00 88 1020.3
20260831065417 69 164 0.0 0.0 0.00 0.00 0.00 88 1022.3
20260831065023 69 0 0.0 0.0 0.00 0.00 0.00 88 1020.3
20260831064548 69 0 0.0 0.0 0.00 0.00 0.00 88 1020.3
20260831064026 69 0 0.0 0.0 0.00 0.00 0.00 88 1020.4
20260831063524 69 0 0.0 0.0 0.00 0.00 0.00 88 1020.3
20260831063306 69 164 0.0 0.0 0.00 0.00 0.00 88 1022.3
20260831063047 69 0 0.0 0.0 0.00 0.00 0.00 88 1020.4
20260831062523 68 0 0.0 0.0 0.00 0.00 0.00 88 1020.4
20260831062249 69 164 0.0 0.0 0.00 0.00 0.00 88 1022.4
20260831062025 68 0 0.0 0.0 0.00 0.00 0.00 88 1020.4
20260831061600 68 0 0.0 0.0 0.00 0.00 0.00 88 1020.4
20260831061253 69 164 0.0 0.0 0.00 0.00 0.00 88 1022.3
20260831061025 68 0 0.0 0.0 0.00 0.00 0.00 88 1020.3
20260831060524 68 0 0.0 0.0 0.00 0.00 0.00 88 1020.5
20260831060235 69 164 0.0 0.0 0.00 0.00 0.00 88 1022.5
20260831060107 68 0 0.0 0.0 0.00 0.00 0.00 88 1020.4
20260831055524 68 0 0.0 0.0 0.00 0.00 0.00 88 1020.5
20260831055243 69 164 0.0 0.0 0.00 0.00 0.00 88 1022.5
20260831055028 68 0 0.0 0.0 0.00 0.00 0.00 88 1020.4
20260831054545 68 0 0.0 0.0 0.00 0.00 0.00 88 1020.4
20260831054025 68 0 0.0 0.0 0.00 0.00 0.00 88 1020.5
20260831053525 68 0 0.0 0.0 0.00 0.00 0.00 88 1020.5
20260831053205 69 164 0.0 0.0 0.00 0.00 0.00 88 1022.4
20260831053119 68 0 0.0 0.0 0.00 0.00 0.00 88 1020.4
20260831052525 68 0 0.0 0.0 0.00 0.00 0.00 88 1020.5
20260831052209 68 164 0.0 0.0 0.00 0.00 0.00 88 1022.6
20260831052026 68 0 0.0 0.0 0.00 0.00 0.00 88 1020.6
20260831051547 68 0 0.0 0.0 0.00 0.00 0.00 88 1020.5
20260831051024 68 0 0.0 0.0 0.00 0.00 0.00 88 1020.5
20260831050523 68 0 0.0 0.0 0.00 0.00 0.00 88 1020.5
20260831050048 68 0 0.0 0.0 0.00 0.00 0.00 88 1020.5
20260831045530 68 0 0.0 0.0 0.00 0.00 0.00 88 1020.5
20260831045027 68 0 0.0 0.0 0.00 0.00 0.00 88 1020.5
20260831044857 68 164 0.0 0.0 0.00 0.00 0.00 88 1022.7
20260831044552 68 0 0.0 0.0 0.00 0.00 0.00 88 1020.6
20260831044026 68 0 0.0 0.0 0.00 0.00 0.00 88 1020.7
20260831043832 69 164 0.0 0.0 0.00 0.00 0.00 88 1022.7
20260831043524 68 0 0.0 0.0 0.00 0.00 0.00 88 1020.7
20260831043052 68 0 0.0 0.0 0.00 0.00 0.00 88 1020.7
20260831042837 69 164 0.0 0.0 0.00 0.00 0.00 88 1022.8
20260831042526 68 0 0.0 0.0 0.00 0.00 0.00 88 1020.7
20260831042024 69 0 0.0 0.0 0.00 0.00 0.00 88 1020.8
20260831041836 69 164 0.0 0.0 0.00 0.00 0.00 87 1022.8
20260831041544 69 0 0.0 0.0 0.00 0.00 0.00 87 1020.7
20260831041026 69 0 0.0 0.0 0.00 0.00 0.00 87 1020.8
20260831040821 69 164 0.0 0.0 0.00 0.00 0.00 87 1022.7
20260831040522 69 0 0.0 0.0 0.00 0.00 0.00 87 1020.7
20260831040043 69 0 0.0 0.0 0.00 0.00 0.00 87 1020.7
20260831035808 70 164 0.0 0.0 0.00 0.00 0.00 88 1022.7
20260831035525 69 0 0.0 0.0 0.00 0.00 0.00 88 1020.6
20260831035025 69 0 0.0 0.0 0.00 0.00 0.00 88 1020.7
20260831034825 70 164 0.0 0.0 0.00 0.00 0.00 87 1022.7
20260831034553 69 0 0.0 0.0 0.00 0.00 0.00 87 1020.7
20260831034026 69 0 0.0 0.0 0.00 0.00 0.00 87 1020.6
20260831033809 70 164 0.0 0.0 0.00 0.00 0.00 87 1022.8
20260831033525 69 0 0.0 0.0 0.00 0.00 0.00 87 1020.7
20260831033103 69 0 0.0 0.0 0.00 0.00 0.00 87 1020.9
20260831032829 70 164 0.0 0.0 0.00 0.00 0.00 87 1022.9
20260831032524 69 0 0.0 0.0 0.00 0.00 0.00 87 1021.0
20260831032023 70 0 0.0 0.0 0.00 0.00 0.00 87 1020.9
20260831031816 70 164 0.0 0.0 0.00 0.00 0.00 87 1023.0
20260831031540 70 0 0.0 0.0 0.00 0.00 0.00 87 1020.9
20260831031029 70 0 0.0 0.0 0.00 0.00 0.00 87 1020.9
20260831030524 70 0 0.0 1.0 0.00 0.00 0.00 87 1021.1
20260831030053 70 0 0.0 1.0 0.00 0.00 0.00 87 1020.9
20260831025706 71 164 0.0 0.0 0.00 0.00 0.00 87 1023.0
20260831025525 70 0 0.0 1.0 0.00 0.00 0.00 87 1021.0
20260831025025 70 0 0.0 1.0 0.00 0.00 0.00 87 1021.1
20260831024549 70 0 0.0 1.0 0.00 0.00 0.00 87 1021.1
20260831024028 71 164 0.0 1.0 0.00 0.00 0.00 87 1021.1
20260831023527 71 164 0.0 0.0 0.00 0.00 0.00 87 1023.2
20260831023524 71 0 0.0 0.0 0.00 0.00 0.00 87 1021.2
20260831023045 71 0 0.0 0.0 0.00 0.00 0.00 87 1021.1
20260831022525 71 0 0.0 0.0 0.00 0.00 0.00 87 1021.1
20260831022025 71 0 0.0 1.0 0.00 0.00 0.00 87 1021.1
20260831021553 71 0 0.0 1.0 0.00 0.00 0.00 87 1021.1
20260831021429 72 164 0.0 0.0 0.00 0.00 0.00 87 1023.1
20260831021030 72 0 0.0 1.0 0.00 0.00 0.00 87 1021.0
20260831020527 72 0 0.0 0.0 0.00 0.00 0.00 87 1020.9
20260831020430 72 164 0.0 0.0 0.00 0.00 0.00 87 1022.9
20260831020106 72 0 0.0 1.0 0.00 0.00 0.00 87 1020.8
20260831015524 72 0 0.0 1.0 0.00 0.00 0.00 87 1020.8
20260831015417 73 164 0.0 0.0 0.00 0.00 0.00 87 1022.9
20260831015024 72 0 0.0 1.0 0.00 0.00 0.00 86 1020.9
20260831014543 73 0 0.0 1.0 0.00 0.00 0.00 86 1020.9
20260831014025 73 0 0.0 1.0 0.00 0.00 0.00 86 1020.8
20260831013527 73 0 0.0 1.0 0.00 0.00 0.00 86 1020.9
20260831013244 74 164 0.0 0.0 0.00 0.00 0.00 86 1022.9
20260831013105 73 0 0.0 1.0 0.00 0.00 0.00 86 1020.8
20260831012525 74 0 0.0 1.0 0.00 0.00 0.00 86 1020.8
20260831012026 74 0 0.0 1.0 0.00 0.00 0.00 85 1020.7
20260831011553 74 0 0.0 3.0 0.00 0.00 0.00 85 1020.6
20260831011115 74 164 0.0 2.0 0.00 0.00 0.00 84 1022.6
20260831011024 74 0 0.0 3.0 0.00 0.00 0.00 84 1020.6
20260831010525 74 150 0.0 3.0 0.00 0.00 0.00 84 1020.5
20260831010057 75 149 0.0 1.0 0.00 0.00 0.00 84 1022.5
20260831010045 74 164 1.0 3.0 0.00 0.00 0.00 84 1020.5
20260831005526 75 0 0.0 1.0 0.00 0.00 0.00 84 1020.3
20260831005045 75 161 0.0 0.0 0.00 0.00 0.00 83 1022.4
20260831005027 75 0 0.0 2.0 0.00 0.00 0.00 83 1020.3
20260831004542 75 0 0.0 2.0 0.00 0.00 0.00 83 1020.3
20260831004025 75 149 1.0 2.0 0.00 0.00 0.00 82 1020.2
20260831003526 76 160 0.0 2.0 0.00 0.00 0.00 81 1020.3
20260831003052 76 0 0.0 3.0 0.00 0.00 0.00 81 1020.2
20260831002525 77 168 0.0 3.0 0.00 0.00 0.00 79 1020.1
20260831002025 77 0 0.0 3.0 0.00 0.00 0.00 79 1020.1
20260831001817 77 145 0.0 2.0 0.00 0.00 0.00 79 1022.2
20260831001547 77 157 1.0 3.0 0.00 0.00 0.00 79 1020.1
20260831001028 77 116 0.0 3.0 0.00 0.00 0.00 79 1020.1
20260831000808 78 149 0.0 1.0 0.00 0.00 0.00 79 1022.2
20260831000526 77 0 0.0 3.0 0.00 0.00 0.00 78 1020.2
20260831000046 78 149 1.0 3.0 0.00 0.00 0.00 78 1020.2
20260830235756 79 169 0.0 1.0 0.00 0.00 0.00 77 1022.2
20260830235525 78 169 1.0 2.0 0.00 0.00 0.00 77 1020.2
20260830235025 79 190 0.0 2.0 0.00 0.00 0.00 76 1020.3
20260830234554 80 190 0.0 2.0 0.00 0.00 0.00 74 1020.3
20260830234025 81 0 0.0 4.0 0.00 0.00 0.00 72 1020.2
20260830233527 81 155 1.0 4.0 0.00 0.00 0.00 70 1020.3
20260830233048 82 153 1.0 3.0 0.00 0.00 0.00 68 1020.3
20260830232527 82 171 1.0 4.0 0.00 0.00 0.00 68 1020.3
20260830232509 83 171 1.0 3.0 0.00 0.00 0.00 68 1022.3
20260830232025 83 169 2.0 4.0 0.00 0.00 0.00 67 1020.3
20260830231546 83 154 1.0 3.0 0.00 0.00 0.00 66 1020.3
20260830231448 84 176 1.0 3.0 0.00 0.00 0.00 66 1022.3
20260830231026 84 96 1.0 5.0 0.00 0.00 0.00 65 1020.2
20260830230528 84 180 2.0 5.0 0.00 0.00 0.00 64 1020.2
20260830230415 85 156 1.0 3.0 0.00 0.00 0.00 64 1022.2
20260830230043 84 170 1.0 6.0 0.00 0.00 0.00 63 1020.1
20260830225523 85 181 3.0 6.0 0.00 0.00 0.00 63 1020.2
20260830225349 85 155 1.0 3.0 0.00 0.00 0.00 63 1022.2
20260830225025 85 0 1.0 6.0 0.00 0.00 0.00 62 1020.2
20260830224553 85 167 1.0 6.0 0.00 0.00 0.00 61 1020.2
20260830224025 85 133 2.0 5.0 0.00 0.00 0.00 61 1020.1
20260830223525 85 226 2.0 6.0 0.00 0.00 0.00 61 1020.0
20260830223048 86 239 2.0 6.0 0.00 0.00 0.00 60 1020.0
20260830222522 86 197 2.0 4.0 0.00 0.00 0.00 61 1020.0
20260830222050 87 220 1.0 5.0 0.00 0.00 0.00 60 1022.1
20260830222026 86 200 1.0 6.0 0.00 0.00 0.00 60 1020.0
20260830221543 86 242 2.0 6.0 0.00 0.00 0.00 60 1020.0
20260830221025 87 72 2.0 6.0 0.00 0.00 0.00 61 1020.0
20260830220525 87 197 2.0 6.0 0.00 0.00 0.00 59 1020.0
20260830215948 87 173 1.0 3.0 0.00 0.00 0.00 59 1022.1
20260830215525 87 162 2.0 5.0 0.00 0.00 0.00 59 1020.0
20260830215025 87 279 1.0 6.0 0.00 0.00 0.00 59 1019.9
20260830214927 88 272 1.0 7.0 0.00 0.00 0.00 59 1021.9
20260830214548 87 245 2.0 8.0 0.00 0.00 0.00 60 1019.9
20260830214024 87 198 2.0 10.0 0.00 0.00 0.00 60 1019.9
20260830213922 88 221 3.0 7.0 0.00 0.00 0.00 59 1022.0
20260830213523 87 141 4.0 10.0 0.00 0.00 0.00 59 1019.9
20260830213045 87 194 3.0 6.0 0.00 0.00 0.00 61 1020.0
20260830212902 88 189 2.0 5.0 0.00 0.00 0.00 60 1022.0
20260830212522 87 140 2.0 6.0 0.00 0.00 0.00 59 1020.0
20260830212024 87 185 3.0 9.0 0.00 0.00 0.00 59 1020.0
20260830211843 88 193 3.0 5.0 0.00 0.00 0.00 58 1022.1
20260830211606 87 72 4.0 9.0 0.00 0.00 0.00 59 1020.0
20260830211031 87 147 2.0 7.0 0.00 0.00 0.00 59 1020.0
20260830210907 88 147 3.0 6.0 0.00 0.00 0.00 59 1022.1
20260830210525 87 120 2.0 8.0 0.00 0.00 0.00 59 1020.0
20260830210053 88 148 4.0 8.0 0.00 0.00 0.00 59 1020.1
20260830205525 88 0 2.0 7.0 0.00 0.00 0.00 59 1020.2
20260830205024 88 126 2.0 8.0 0.00 0.00 0.00 58 1020.2
20260830204721 89 259 2.0 7.0 0.00 0.00 0.00 59 1022.3
20260830204545 88 135 2.0 8.0 0.00 0.00 0.00 58 1020.2
20260830204024 88 146 2.0 8.0 0.00 0.00 0.00 60 1020.2
20260830203745 88 234 3.0 8.0 0.00 0.00 0.00 59 1022.2
20260830203524 88 145 4.0 9.0 0.00 0.00 0.00 59 1020.2
20260830203043 88 207 5.0 9.0 0.00 0.00 0.00 60 1020.2
20260830202757 88 137 3.0 8.0 0.00 0.00 0.00 58 1022.3
20260830202525 87 201 3.0 8.0 0.00 0.00 0.00 61 1020.1
20260830202025 87 198 3.0 7.0 0.00 0.00 0.00 61 1020.3
20260830201738 87 192 1.0 5.0 0.00 0.00 0.00 61 1022.4
20260830201552 85 181 1.0 5.0 0.00 0.00 0.00 61 1020.3
20260830201027 86 0 1.0 8.0 0.00 0.00 0.00 60 1020.4
20260830200716 87 241 3.0 6.0 0.00 0.00 0.00 59 1022.5